Hourly Weather Roundup
Issued by NWS Central Illinois

Home | Current Version | Previous Version | Text Only | Print | Product List | Glossary On
Versions: 1 2 3 4 5 6 7 8 9 10 11 12 13 14 15 16 17 18 19 20 21 22 23 24 25 26 27 28 29 30 31 32 33 34 35 36 37 38 39 40 41 42 43 44 45 46 47 48 49 50
000
NZUS43 KILX 282210
HWRILX

AREA WEATHER ROUNDUP
NATIONAL WEATHER SERVICE, LINCOLN IL
500 PM CDT THU APR 28 2016


CITY           SKY/WX    TMP DP  RH WIND       PRES   REMARKS
BLOOMINGTON    PTSUNNY   62  51  67 W21       29.90R
CHAMPAIGN      PTSUNNY   67  52  58 W20G28    29.87R
DANVILLE       CLOUDY    63  55  77 N7        29.85R
DECATUR        SUNNY     67  48  50 W16G25    29.90R
EFFINGHAM      MOSUNNY   70  54  56 SW12G18   29.91S
FLORA          MOSUNNY   72  52  48 W13G20    29.90R
GALESBURG      CLOUDY    56  47  72 W10       29.91S
JACKSONVILLE   MOSUNNY   63  48  59 W10       29.93R
LACON          CLOUDY    57  51  80 W7        29.90R
LAWRENCEVILLE  MOSUNNY   73  51  46 W12       29.88R
LITCHFIELD     MOSUNNY   66  50  55 NW10      29.91S
$$


CITY           SKY/WX    TMP DP  RH WIND       PRES   REMARKS
LINCOLN        PTSUNNY   63  51  63 W7        29.91R
MACOMB         CLOUDY    58  49  71 W13       29.94R
MATTOON        SUNNY     67  49  52 W16G24    29.88R
MT CARMEL AP   NOT AVBL
OLNEY-NOBLE AP SUNNY     70  52  52 W13       29.90R
PARIS          PTSUNNY   69  57  67 W12       29.87S
PEORIA         PTSUNNY   58  46  64 W10       29.91R
PONTIAC        CLOUDY    59  55  84 NE7       29.90R
RANTOUL        CLOUDY    66  56  70 CALM      29.87R
ROBINSON       MOSUNNY   72  52  49 W16G23    29.88S
SPRINGFIELD    PTSUNNY   64  50  60 W15       29.92R
TAYLORVILLE    PTSUNNY   64  52  63 W9        29.91R
$$

...REGIONAL REPORTS...


CITY           SKY/WX    TMP DP  RH WIND       PRES   REMARKS
CHICAGO O`HARE CLOUDY    46  40  79 NE12      29.93S
KANKAKEE       CLOUDY    57  51  79 NE7       29.90R
MOLINE         CLOUDY    57  49  74 NW6       29.90R
MOUNT STERLING PTSUNNY   61  48  63 W10G17    29.93R
MOUNT VERNON   SUNNY     73  52  46 W8        29.90S
PITTSFIELD     PTSUNNY   61  47  59 W13       29.95R
QUINCY         CLOUDY    60  47  61 W10       29.92R
ROCKFORD       CLOUDY    48  41  76 E13       29.96R
$$


CITY           SKY/WX    TMP DP  RH WIND       PRES   REMARKS
BURLINGTON     CLOUDY    58  46  64 W9        29.91R
CEDAR RAPIDS   LGT RAIN  52  51  97 NW3       29.90R
DES MOINES     CLOUDY    54  46  74 W17G25    29.92R
KIRKSVILLE     CLOUDY    58  46  64 W8G20     29.95R
OTTUMWA        CLOUDY    55  48  77 W12       29.92R
ST LOUIS       MOSUNNY   73  50  44 N9        29.90S
$$


CITY           SKY/WX    TMP DP  RH WIND       PRES   REMARKS
TERRE HAUTE    MOSUNNY   70  51  51 SW15      29.87R
EVANSVILLE     SUNNY     76  52  43 W12       29.88S
INDIANAPOLIS   PTSUNNY   69  55  60 NW13      29.85R
LAFAYETTE      PTSUNNY   63  54  72 N7        29.88R
MADISON        DRIZZLE   40  37  89 E9        29.98R FOG     WCI  34
MILWAUKEE      CLOUDY    41  37  86 NE12G24   29.99R WCI  34
$$





USA.gov is the U.S. government's official web portal to all federal, state and local government web resources and services.